Tracking 26240 objects as of 6-Oct-2022
HD Live streaming from Space Station
objects crossing your sky now

STARLINK-3355

Track STARLINK-3355 now!
10-day predictions
STARLINK-3355 is classified as:


NORAD ID: 50808
Int'l Code: 2022-001F
Perigee: 545.7 km
Apogee: 548.1 km
Inclination: 53.2 °
Period: 95.4 minutes
Semi major axis: 6917 km
RCS: Unknown
Launch date: January 6, 2022
Source: United States (US)
Launch site: AIR FORCE EASTERN TEST RANGE (AFETR)
aabbcc
Your satellite tracking list
Your tracking list is empty




NASA's NSSDC Master Catalog

Two Line Element Set (TLE):
1 50808U 22001F   22278.53172163 -.00000397  00000-0 -68501-5 0  9991
2 50808  53.2188  15.7873 0001737  47.1863 312.9275 15.08833441 41661
Source of the keplerian elements: AFSPC